Time,TemperatureF,DewpointF,PressureIn,WindDirection,WindDirectionDegrees,WindSpeedMPH,WindSpeedGustMPH,Humidity,HourlyPrecipIn,Conditions,Clouds,dailyrainin,SoftwareType,DateUTC
2013-06-28 00:12:00,71.0,68.0,29.60,SSW,209,0.0,3.0,90,0.00,,,0.12,,2013-06-28 04:12:00,
2013-06-28 00:22:00,71.0,68.0,29.60,ESE,102,0.0,1.0,91,0.00,,,0.12,,2013-06-28 04:22:00,
2013-06-28 00:43:00,70.0,67.0,29.60,SW,228,2.0,3.0,91,0.00,,,0.12,,2013-06-28 04:43:00,
2013-06-28 00:53:00,69.0,67.0,29.60,WSW,239,2.0,4.0,93,0.00,,,0.12,,2013-06-28 04:53:00,
2013-06-28 01:11:00,69.0,66.0,29.59,WSW,248,0.0,4.0,91,0.00,,,0.12,,2013-06-28 05:11:00,
2013-06-28 01:33:00,69.0,66.0,29.59,West,259,0.0,3.0,91,0.00,,,0.12,,2013-06-28 05:33:00,
2013-06-28 01:43:00,69.0,66.0,29.59,SW,223,0.0,3.0,91,0.00,,,0.12,,2013-06-28 05:43:00,
2013-06-28 01:53:00,69.0,67.0,29.59,SW,236,1.0,3.0,92,0.00,,,0.12,,2013-06-28 05:53:00,
2013-06-28 02:02:00,68.0,66.0,29.59,SW,225,0.0,1.0,93,0.00,,,0.12,,2013-06-28 06:02:00,
2013-06-28 02:12:00,68.0,66.0,29.59,SW,225,0.0,1.0,93,0.00,,,0.12,,2013-06-28 06:12:00,
2013-06-28 02:22:00,68.0,66.0,29.59,WSW,257,0.0,1.0,94,0.00,,,0.12,,2013-06-28 06:22:00,
2013-06-28 02:33:00,68.0,66.0,29.59,WSW,257,0.0,1.0,94,0.00,,,0.12,,2013-06-28 06:33:00,
2013-06-28 02:42:00,68.0,67.0,29.58,WSW,240,1.0,3.0,95,0.00,,,0.05,,2013-06-28 06:42:00,
2013-06-28 02:52:00,69.0,68.0,29.58,SW,231,1.0,3.0,95,0.00,,,0.05,,2013-06-28 06:52:00,
2013-06-28 03:01:00,69.0,68.0,29.58,West,270,0.0,3.0,95,0.00,,,0.05,,2013-06-28 07:01:00,
2013-06-28 03:11:00,69.0,68.0,29.58,West,270,0.0,3.0,95,0.00,,,0.05,,2013-06-28 07:11:00,
2013-06-28 03:22:00,69.0,68.0,29.58,WSW,243,0.0,3.0,96,0.00,,,0.05,,2013-06-28 07:22:00,
2013-06-28 03:33:00,68.0,67.0,29.58,West,264,0.0,1.0,96,0.00,,,0.02,,2013-06-28 07:33:00,
2013-06-28 03:43:00,68.0,67.0,29.58,West,264,0.0,1.0,96,0.00,,,0.02,,2013-06-28 07:43:00,
2013-06-28 03:52:00,68.0,67.0,29.57,WSW,252,0.0,4.0,96,0.00,,,0.02,,2013-06-28 07:52:00,
2013-06-28 04:02:00,68.0,67.0,29.57,West,273,2.0,4.0,96,0.00,,,0.02,,2013-06-28 08:02:00,
2013-06-28 04:11:00,68.0,67.0,29.57,West,273,2.0,4.0,96,0.00,,,0.02,,2013-06-28 08:11:00,
2013-06-28 04:22:00,68.0,67.0,29.57,West,263,0.0,3.0,96,0.00,,,0.02,,2013-06-28 08:22:00,
2013-06-28 04:33:00,68.0,67.0,29.57,West,263,0.0,3.0,96,0.00,,,0.02,,2013-06-28 08:33:00,
2013-06-28 04:43:00,68.0,67.0,29.56,West,277,0.0,3.0,96,0.00,,,0.01,,2013-06-28 08:43:00,
2013-06-28 04:52:00,68.0,67.0,29.56,WSW,242,1.0,4.0,96,0.00,,,0.01,,2013-06-28 08:52:00,
2013-06-28 05:02:00,68.0,67.0,29.56,WSW,242,1.0,4.0,96,0.00,,,0.01,,2013-06-28 09:02:00,
2013-06-28 05:11:00,68.0,67.0,29.56,WSW,248,1.0,3.0,96,0.00,,,0.01,,2013-06-28 09:11:00,
2013-06-28 05:22:00,67.0,66.0,29.56,West,262,0.0,2.0,96,0.00,,,0.01,,2013-06-28 09:22:00,
2013-06-28 05:33:00,67.0,66.0,29.56,West,262,0.0,2.0,96,0.00,,,0.01,,2013-06-28 09:33:00,
2013-06-28 05:42:00,67.0,66.0,29.56,West,264,0.0,2.0,96,0.00,,,0.01,,2013-06-28 09:42:00,
2013-06-28 05:52:00,67.0,66.0,29.56,West,264,0.0,2.0,96,0.00,,,0.01,,2013-06-28 09:52:00,
2013-06-28 06:02:00,67.0,66.0,29.56,West,264,0.0,2.0,96,0.00,,,0.01,,2013-06-28 10:02:00,
2013-06-28 06:12:00,67.0,66.0,29.56,North,1,0.0,2.0,96,0.00,,,0.01,,2013-06-28 10:12:00,
2013-06-28 06:22:00,67.0,66.0,29.56,North,1,0.0,2.0,96,0.00,,,0.01,,2013-06-28 10:22:00,
2013-06-28 06:33:00,67.0,66.0,29.56,WNW,283,0.0,3.0,97,0.00,,,0.01,,2013-06-28 10:33:00,
2013-06-28 06:42:00,67.0,66.0,29.56,WSW,252,0.0,2.0,96,0.00,,,0.01,,2013-06-28 10:42:00,
2013-06-28 06:52:00,66.0,65.0,29.57,WSW,240,0.0,1.0,96,0.00,,,0.01,,2013-06-28 10:52:00,
2013-06-28 07:02:00,66.0,65.0,29.57,WSW,240,0.0,1.0,96,0.00,,,0.01,,2013-06-28 11:02:00,
2013-06-28 07:11:00,67.0,66.0,29.57,WNW,287,1.0,4.0,97,0.00,,,0.01,,2013-06-28 11:11:00,
2013-06-28 07:34:00,67.0,66.0,29.57,SW,233,1.0,4.0,96,0.00,,,0.01,,2013-06-28 11:34:00,
2013-06-28 07:43:00,68.0,67.0,29.57,West,264,0.0,2.0,96,0.00,,,0.01,,2013-06-28 11:43:00,
2013-06-28 07:53:00,68.0,67.0,29.57,West,271,2.0,4.0,95,0.00,,,0.01,,2013-06-28 11:53:00,
2013-06-28 08:02:00,68.0,67.0,29.57,West,271,2.0,4.0,95,0.00,,,0.01,,2013-06-28 12:02:00,
2013-06-28 08:12:00,69.0,67.0,29.57,WNW,285,1.0,5.0,93,0.00,,,0.01,,2013-06-28 12:12:00,
2013-06-28 08:22:00,70.0,67.0,29.56,West,260,3.0,7.0,91,0.00,,,0.01,,2013-06-28 12:22:00,
2013-06-28 08:43:00,70.0,67.0,29.56,WNW,297,2.0,5.0,90,0.00,,,0.00,,2013-06-28 12:43:00,
2013-06-28 08:52:00,71.0,68.0,29.57,NNE,16,0.0,6.0,90,0.00,,,0.00,,2013-06-28 12:52:00,
2013-06-28 09:01:00,71.0,68.0,29.57,NNE,16,0.0,6.0,90,0.00,,,0.00,,2013-06-28 13:01:00,
2013-06-28 09:11:00,71.0,67.0,29.57,WSW,252,3.0,8.0,88,0.00,,,0.00,,2013-06-28 13:11:00,
2013-06-28 09:33:00,71.0,67.0,29.57,West,270,2.0,7.0,88,0.00,,,0.00,,2013-06-28 13:33:00,
2013-06-28 09:43:00,71.0,67.0,29.57,WNW,285,1.0,7.0,88,0.00,,,0.00,,2013-06-28 13:43:00,
2013-06-28 09:53:00,72.0,69.0,29.56,WNW,290,0.0,5.0,89,0.00,,,0.00,,2013-06-28 13:53:00,
2013-06-28 10:02:00,72.0,69.0,29.56,WNW,290,0.0,5.0,89,0.00,,,0.00,,2013-06-28 14:02:00,
2013-06-28 10:12:00,72.0,68.0,29.56,WNW,284,3.0,8.0,87,0.00,,,0.00,,2013-06-28 14:12:00,
2013-06-28 10:44:00,72.0,68.0,29.57,North,350,3.0,9.0,87,0.00,,,0.00,,2013-06-28 14:44:00,
2013-06-28 10:53:00,72.0,68.0,29.57,North,352,4.0,10.0,87,0.00,,,0.00,,2013-06-28 14:53:00,
2013-06-28 11:02:00,72.0,68.0,29.57,North,352,4.0,10.0,87,0.00,,,0.00,,2013-06-28 15:02:00,
2013-06-28 11:11:00,73.0,69.0,29.56,WNW,283,3.0,8.0,87,0.00,,,0.00,,2013-06-28 15:11:00,
2013-06-28 11:24:00,74.0,69.0,29.56,West,274,2.0,12.0,85,0.00,,,0.00,,2013-06-28 15:24:00,
2013-06-28 11:34:00,74.0,69.0,29.56,West,274,2.0,12.0,85,0.00,,,0.00,,2013-06-28 15:34:00,
2013-06-28 11:43:00,74.0,68.0,29.56,NW,314,4.0,8.0,83,0.00,,,0.00,,2013-06-28 15:43:00,
2013-06-28 11:52:00,75.0,69.0,29.56,NNE,16,5.0,11.0,82,0.00,,,0.00,,2013-06-28 15:52:00,
2013-06-28 12:02:00,75.0,69.0,29.56,NNE,16,5.0,11.0,82,0.00,,,0.00,,2013-06-28 16:02:00,
2013-06-28 12:11:00,76.0,70.0,29.56,NW,322,1.0,12.0,81,0.00,,,0.00,,2013-06-28 16:11:00,
2013-06-28 12:25:00,77.0,68.0,29.55,WSW,238,7.0,13.0,74,0.00,,,0.00,,2013-06-28 16:25:00,
2013-06-28 12:44:00,77.0,67.0,29.55,WNW,302,3.0,13.0,72,0.00,,,0.00,,2013-06-28 16:44:00,
2013-06-28 12:53:00,78.0,68.0,29.55,WNW,291,4.0,13.0,72,0.00,,,0.00,,2013-06-28 16:53:00,
2013-06-28 13:02:00,78.0,68.0,29.55,WNW,291,4.0,13.0,72,0.00,,,0.00,,2013-06-28 17:02:00,
2013-06-28 13:11:00,78.0,67.0,29.54,SSW,197,3.0,14.0,70,0.00,,,0.00,,2013-06-28 17:11:00,
2013-06-28 13:33:00,79.0,68.0,29.54,West,260,4.0,13.0,69,0.00,,,0.00,,2013-06-28 17:33:00,
2013-06-28 13:44:00,80.0,66.0,29.54,NNW,330,8.0,19.0,63,0.00,,,0.00,,2013-06-28 17:44:00,
2013-06-28 13:52:00,79.0,67.0,29.53,SE,137,3.0,14.0,66,0.00,,,0.00,,2013-06-28 17:52:00,
2013-06-28 14:02:00,79.0,67.0,29.53,SE,137,3.0,14.0,66,0.00,,,0.00,,2013-06-28 18:02:00,
2013-06-28 14:11:00,80.0,65.0,29.53,WNW,283,5.0,15.0,60,0.00,,,0.00,,2013-06-28 18:11:00,
2013-06-28 14:33:00,80.0,66.0,29.52,WSW,239,6.0,15.0,63,0.00,,,0.00,,2013-06-28 18:33:00,
2013-06-28 14:43:00,81.0,66.0,29.52,WSW,252,4.0,21.0,61,0.00,,,0.00,,2013-06-28 18:43:00,
2013-06-28 14:52:00,81.0,66.0,29.51,WSW,246,4.0,12.0,60,0.00,,,0.00,,2013-06-28 18:52:00,
2013-06-28 15:01:00,81.0,66.0,29.51,WSW,246,4.0,12.0,60,0.00,,,0.00,,2013-06-28 19:01:00,
2013-06-28 15:11:00,81.0,67.0,29.50,West,269,6.0,16.0,62,0.00,,,0.00,,2013-06-28 19:11:00,
2013-06-28 15:22:00,81.0,64.0,29.50,WNW,294,9.0,19.0,57,0.00,,,0.00,,2013-06-28 19:22:00,
2013-06-28 15:33:00,81.0,64.0,29.50,WNW,294,9.0,19.0,57,0.00,,,0.00,,2013-06-28 19:33:00,
2013-06-28 15:43:00,81.0,64.0,29.50,West,270,8.0,19.0,56,0.00,,,0.00,,2013-06-28 19:43:00,
2013-06-28 15:53:00,82.0,65.0,29.49,WNW,288,6.0,14.0,57,0.00,,,0.00,,2013-06-28 19:53:00,
2013-06-28 16:02:00,82.0,65.0,29.49,WNW,288,6.0,14.0,57,0.00,,,0.00,,2013-06-28 20:02:00,
2013-06-28 16:11:00,82.0,66.0,29.49,NW,315,3.0,17.0,58,0.00,,,0.00,,2013-06-28 20:11:00,
2013-06-28 16:22:00,81.0,65.0,29.49,West,280,4.0,15.0,58,0.00,,,0.00,,2013-06-28 20:22:00,
2013-06-28 16:43:00,80.0,64.0,29.50,West,262,5.0,15.0,59,0.00,,,0.00,,2013-06-28 20:43:00,
2013-06-28 17:43:00,71.0,64.0,29.51,WSW,238,4.0,8.0,78,0.01,,,0.01,,2013-06-28 21:43:00,
2013-06-28 17:53:00,76.0,67.0,29.51,NW,322,2.0,13.0,74,0.00,,,0.01,,2013-06-28 21:53:00,
2013-06-28 18:01:00,76.0,67.0,29.51,NW,322,2.0,13.0,74,0.00,,,0.01,,2013-06-28 22:01:00,
2013-06-28 18:11:00,79.0,68.0,29.51,NNW,342,3.0,12.0,69,0.00,,,0.01,,2013-06-28 22:11:00,
2013-06-28 18:22:00,75.0,63.0,29.51,NNE,27,4.0,13.0,66,0.00,,,0.01,,2013-06-28 22:22:00,
2013-06-28 18:34:00,75.0,63.0,29.51,NNE,27,4.0,13.0,66,0.00,,,0.01,,2013-06-28 22:34:00,
2013-06-28 18:43:00,74.0,62.0,29.52,NNE,20,4.0,6.0,67,0.00,,,0.01,,2013-06-28 22:43:00,
2013-06-28 18:52:00,74.0,63.0,29.52,North,352,2.0,6.0,69,0.00,,,0.01,,2013-06-28 22:52:00,
2013-06-28 19:02:00,75.0,64.0,29.51,NNE,18,3.0,5.0,69,0.00,,,0.01,,2013-06-28 23:02:00,
2013-06-28 19:11:00,75.0,64.0,29.51,NNE,18,3.0,5.0,69,0.00,,,0.01,,2013-06-28 23:11:00,
2013-06-28 19:23:00,78.0,66.0,29.51,NNE,30,0.0,5.0,66,0.00,,,0.01,,2013-06-28 23:23:00,
2013-06-28 19:34:00,79.0,66.0,29.51,North,11,2.0,6.0,64,0.00,,,0.01,,2013-06-28 23:34:00,
2013-06-28 19:43:00,79.0,66.0,29.51,North,11,2.0,6.0,64,0.00,,,0.01,,2013-06-28 23:43:00,
2013-06-28 19:53:00,79.0,65.0,29.52,WNW,300,2.0,6.0,62,0.00,,,0.01,,2013-06-28 23:53:00,
2013-06-28 20:02:00,78.0,62.0,29.52,NNW,342,3.0,6.0,58,0.00,,,0.01,,2013-06-29 00:02:00,
2013-06-28 20:11:00,78.0,62.0,29.52,NNW,342,3.0,6.0,58,0.00,,,0.01,,2013-06-29 00:11:00,
2013-06-28 20:23:00,77.0,63.0,29.52,NNW,347,3.0,6.0,61,0.00,,,0.01,,2013-06-29 00:23:00,
2013-06-28 20:33:00,77.0,63.0,29.52,NNW,347,3.0,6.0,61,0.00,,,0.01,,2013-06-29 00:33:00,
2013-06-28 20:42:00,77.0,63.0,29.52,NNW,347,3.0,6.0,61,0.00,,,0.01,,2013-06-29 00:42:00,
2013-06-28 20:52:00,77.0,63.0,29.52,WSW,252,0.0,6.0,62,0.00,,,0.01,,2013-06-29 00:52:00,
2013-06-28 21:01:00,77.0,63.0,29.52,WSW,252,0.0,6.0,62,0.00,,,0.01,,2013-06-29 01:01:00,
2013-06-28 21:11:00,77.0,63.0,29.52,WSW,252,0.0,6.0,62,0.00,,,0.01,,2013-06-29 01:11:00,
2013-06-28 21:22:00,77.0,63.0,29.52,WSW,252,0.0,6.0,62,0.00,,,0.01,,2013-06-29 01:22:00,
2013-06-28 21:32:00,77.0,63.0,29.52,WSW,252,0.0,6.0,62,0.00,,,0.01,,2013-06-29 01:32:00,
2013-06-28 23:11:00,68.0,63.0,29.54,ENE,61,2.0,5.0,84,0.00,,,0.01,,2013-06-29 03:11:00,
2013-06-28 23:21:00,68.0,63.0,29.54,ENE,61,2.0,5.0,84,0.00,,,0.01,,2013-06-29 03:21:00,
2013-06-28 23:32:00,67.0,63.0,29.53,East,86,2.0,3.0,87,0.00,,,0.01,,2013-06-29 03:32:00,
2013-06-28 23:41:00,67.0,63.0,29.53,ESE,121,0.0,1.0,88,0.00,,,0.01,,2013-06-29 03:41:00,
2013-06-28 23:51:00,66.0,62.0,29.53,SSE,153,0.0,2.0,88,0.00,,,0.01,,2013-06-29 03:51:00,